Weather History for KHJH - November, 2012

Change the Weather History Date:

Friday, November 2, 2012

  Actual Average Record
Temperature  
Mean Temperature 50 °F -  
Max Temperature 62 °F 55 °F 81 °F (1990)
Min Temperature 39 °F 34 °F 8 °F (1991)
Degree Days  
Heating Degree Days 14    
Moisture  
Dew Point 38 °F    
Average Humidity 71    
Maximum Humidity 93    
Minimum Humidity 44    
Precipitation  
Precipitation 0.00 in - - ()
Sea Level Pressure  
Sea Level Pressure 29.94 in    
Wind  
Wind Speed 6 mph (ENE)    
Max Wind Speed 14 mph    
Max Gust Speed 18 mph    
Visibility 8 miles    
Events      
Averages and records for this station are not official NWS values.
T = Trace of Precipitation, MM = Missing Value Source: NWS Daily Summary

Daily Weather History Graph

Daily Weather History Graph

Search for Another Location

Airport or City:

Trip Planner

Search our weather history database for the weather conditions in past years. The results will help you decide how hot, cold, wet, or windy it might be!

Date:

Astronomy

Nov. 02, 2012 Rise Set
Actual Time 8:01 AM CDT 6:25 PM CDT
Civil Twilight 7:33 AM CDT 6:54 PM CDT
Nautical Twilight 7:01 AM CDT 7:26 PM CDT
Astronomical Twilight 6:29 AM CDT 7:57 PM CDT
Moon 9:14 PM CDT (11/2) 11:22 AM CDT (11/2)
Length of Visible Light 11h 20m
Length of Day
10h 24m
Waning Gibbous, 87% of the Moon is Illuminated
Nov 2
Waning Gibbous
Nov 6
Last Quarter
Nov 13
New
Nov 20
First Quarter
Nov 28
Full

Hourly Weather History & Observations

Time (CDT) Temp. Windchill Dew Point Humidity Pressure Visibility Wind Dir Wind Speed Gust Speed Precip Events Conditions
12:15 AM 42.8 °F 40.1 °F 39.6 °F 88% 29.94 in 4.0 mi ESE 4.6 mph - N/A   Clear
12:35 AM 42.4 °F 38.1 °F 39.6 °F 90% 29.93 in 4.0 mi ESE 6.9 mph - N/A   Clear
12:55 AM 42.8 °F 38.6 °F 39.7 °F 89% 29.94 in 4.0 mi ESE 6.9 mph - N/A   Clear
1:15 AM 42.3 °F 37.9 °F 39.6 °F 90% 29.93 in 4.0 mi ESE 6.9 mph - N/A   Clear
1:35 AM 41.7 °F 38.8 °F 39.2 °F 91% 29.94 in 4.0 mi East 4.6 mph - N/A   Clear
1:55 AM 41.2 °F 38.2 °F 39.2 °F 93% 29.93 in 4.0 mi East 4.6 mph - N/A   Clear
2:15 AM 41.0 °F 38.0 °F 38.8 °F 92% 29.93 in 4.0 mi East 4.6 mph - N/A   Clear
2:35 AM 40.6 °F 38.6 °F 38.7 °F 93% 29.93 in 4.0 mi East 3.5 mph - N/A   Clear
2:55 AM 41.0 °F 37.1 °F 39.2 °F 93% 29.93 in 4.0 mi East 5.8 mph - N/A   Clear
3:15 AM 41.4 °F 38.4 °F 39.2 °F 92% 29.93 in 5.0 mi East 4.6 mph - N/A   Clear
3:35 AM 41.5 °F 38.6 °F 39.2 °F 91% 29.92 in 5.0 mi ESE 4.6 mph - N/A   Clear
3:55 AM 41.2 °F 39.2 °F 38.7 °F 91% 29.92 in 5.0 mi East 3.5 mph - N/A   Clear
4:15 AM 41.0 °F 37.1 °F 38.5 °F 91% 29.92 in 5.0 mi ESE 5.8 mph - N/A   Clear
4:35 AM 41.0 °F 39.0 °F 38.3 °F 90% 29.92 in 5.0 mi ESE 3.5 mph - N/A   Clear
4:55 AM 40.3 °F 36.3 °F 37.9 °F 91% 29.91 in 5.0 mi East 5.8 mph - N/A   Clear
5:15 AM 40.3 °F 36.3 °F 37.9 °F 91% 29.90 in 5.0 mi ESE 5.8 mph - N/A   Clear
5:35 AM 40.5 °F 37.3 °F 37.9 °F 91% 29.90 in 7.0 mi East 4.6 mph - N/A   Clear
5:55 AM 40.5 °F 36.5 °F 37.8 °F 90% 29.90 in 7.0 mi East 5.8 mph - N/A   Clear
6:15 AM 40.8 °F 37.8 °F 37.4 °F 88% 29.90 in 7.0 mi East 4.6 mph - N/A   Clear
6:35 AM 40.5 °F 35.8 °F 37.4 °F 89% 29.90 in 7.0 mi ESE 6.9 mph - N/A   Clear
6:55 AM 39.9 °F 35.8 °F 36.9 °F 89% 29.90 in 7.0 mi East 5.8 mph - N/A   Clear
7:15 AM 39.6 °F 37.4 °F 36.5 °F 89% 29.89 in 7.0 mi East 3.5 mph - N/A   Clear
7:35 AM 39.0 °F 35.7 °F 36.1 °F 89% 29.89 in 7.0 mi East 4.6 mph - N/A   Clear
7:55 AM 39.2 °F 35.9 °F 36.5 °F 90% 29.89 in 7.0 mi East 4.6 mph - N/A   Clear
8:15 AM 39.2 °F 37.0 °F 36.1 °F 89% 29.89 in 5.0 mi East 3.5 mph - N/A   Clear
8:35 AM 39.2 °F 35.0 °F 36.5 °F 90% 29.90 in 7.0 mi East 5.8 mph - N/A   Clear
8:55 AM 39.7 °F 34.9 °F 36.7 °F 89% 29.90 in 7.0 mi East 6.9 mph - N/A   Clear
9:15 AM 41.4 °F 36.2 °F 37.4 °F 86% 29.89 in 7.0 mi ESE 8.1 mph - N/A   Clear
9:35 AM 43.0 °F 37.2 °F 37.8 °F 82% 29.89 in 10.0 mi East 10.4 mph - N/A   Clear
9:55 AM 45.5 °F 40.3 °F 38.5 °F 76% 29.89 in 10.0 mi East 10.4 mph 16.1 mph N/A   Clear
10:15 AM 45.9 °F 41.2 °F 38.5 °F 75% 29.89 in 10.0 mi ESE 9.2 mph - N/A   Clear
10:35 AM 47.7 °F - 39.0 °F 72% 29.89 in 10.0 mi East 11.5 mph - N/A   Clear
10:55 AM 48.7 °F - 39.4 °F 70% 29.90 in 10.0 mi East 6.9 mph - N/A   Clear
11:15 AM 50.5 °F - 39.4 °F 66% 29.91 in 10.0 mi East 5.8 mph - N/A   Clear
11:35 AM 52.0 °F - 39.4 °F 62% 29.91 in 10.0 mi East 4.6 mph - N/A   Clear
11:55 AM 53.1 °F - 39.6 °F 60% 29.92 in 10.0 mi ENE 5.8 mph - N/A   Clear
12:15 PM 54.7 °F - 39.6 °F 57% 29.90 in 10.0 mi East 9.2 mph - N/A   Clear
12:35 PM 55.6 °F - 40.3 °F 56% 29.90 in 10.0 mi East 9.2 mph - N/A   Clear
12:55 PM 56.5 °F - 39.9 °F 54% 29.89 in 10.0 mi ESE 6.9 mph - N/A   Clear
1:15 PM 57.6 °F - 40.1 °F 52% 29.89 in 10.0 mi ESE 8.1 mph - N/A   Clear
1:35 PM 58.1 °F - 40.1 °F 51% 29.89 in 10.0 mi ESE 5.8 mph - N/A   Clear
1:55 PM 59.2 °F - 39.9 °F 49% 29.88 in 10.0 mi NE 8.1 mph - N/A   Clear
2:15 PM 60.3 °F - 40.1 °F 47% 29.88 in 10.0 mi East 5.8 mph - N/A   Clear
2:35 PM 60.6 °F - 40.3 °F 47% 29.88 in 10.0 mi Calm Calm - N/A   Clear
2:55 PM 61.3 °F - 39.9 °F 45% 29.89 in 10.0 mi Calm Calm - N/A   Clear
3:15 PM 61.5 °F - 40.3 °F 46% 29.88 in 10.0 mi ENE 4.6 mph - N/A   Clear
3:35 PM 62.1 °F - 40.1 °F 44% 29.89 in 10.0 mi NNE 9.2 mph - N/A   Clear
3:55 PM 62.1 °F - 40.1 °F 44% 29.90 in 10.0 mi ENE 4.6 mph - N/A   Clear
4:15 PM 61.9 °F - 39.7 °F 44% 29.91 in 10.0 mi NNE 6.9 mph - N/A   Clear
4:35 PM 61.2 °F - 40.1 °F 46% 29.91 in 10.0 mi NNE 9.2 mph - N/A   Clear
4:55 PM 59.7 °F - 39.4 °F 47% 29.92 in 10.0 mi North 11.5 mph - N/A   Clear
5:15 PM 59.0 °F - 39.4 °F 48% 29.93 in 10.0 mi North 9.2 mph - N/A   Clear
5:35 PM 58.6 °F - 39.2 °F 48% 29.93 in 10.0 mi North 8.1 mph - N/A   Clear
5:55 PM 57.4 °F - 38.5 °F 49% 29.95 in 10.0 mi NNE 12.7 mph 17.3 mph N/A   Clear
6:15 PM 54.9 °F - 37.4 °F 52% 29.96 in 10.0 mi NNE 10.4 mph - N/A   Clear
6:35 PM 53.6 °F - 37.4 °F 54% 29.97 in 10.0 mi NNE 10.4 mph - N/A   Clear
6:55 PM 52.7 °F - 37.0 °F 55% 29.98 in 10.0 mi North 9.2 mph - N/A   Clear
7:15 PM 51.8 °F - 36.5 °F 56% 30.00 in 10.0 mi North 10.4 mph - N/A   Clear
7:35 PM 51.8 °F - 36.1 °F 55% 30.00 in 10.0 mi North 10.4 mph - N/A   Clear
7:55 PM 50.4 °F - 36.3 °F 59% 30.02 in 10.0 mi North 10.4 mph - N/A   Clear
8:15 PM 48.7 °F - 35.8 °F 61% 30.03 in 10.0 mi North 10.4 mph - N/A   Clear
8:35 PM 47.5 °F - 35.6 °F 63% 30.03 in 10.0 mi North 9.2 mph - N/A   Clear
8:55 PM 45.5 °F 41.3 °F 35.6 °F 68% 30.04 in 10.0 mi North 8.1 mph - N/A   Clear
9:15 PM 44.6 °F 40.2 °F 35.1 °F 69% 30.04 in 10.0 mi North 8.1 mph - N/A   Clear
9:35 PM 44.1 °F 39.0 °F 34.9 °F 70% 30.05 in 10.0 mi NNW 9.2 mph - N/A   Clear
9:55 PM 43.7 °F 39.1 °F 34.7 °F 71% 30.06 in 10.0 mi North 8.1 mph - N/A   Clear
10:15 PM 43.3 °F 37.7 °F 34.9 °F 72% 30.07 in 10.0 mi North 10.4 mph - N/A   Clear
10:35 PM 43.0 °F 37.7 °F 34.7 °F 73% 30.08 in 10.0 mi NNW 9.2 mph - N/A   Clear
10:55 PM 43.0 °F 36.4 °F 34.7 °F 73% 30.09 in 10.0 mi North 12.7 mph 16.1 mph N/A   Clear
11:15 PM 41.9 °F 35.4 °F 34.3 °F 75% 30.09 in 10.0 mi North 11.5 mph 16.1 mph N/A   Clear
11:35 PM 41.0 °F 33.5 °F 34.0 °F 76% 30.09 in 10.0 mi North 13.8 mph 17.3 mph N/A   Clear
11:55 PM 40.5 °F 33.2 °F 33.8 °F 77% 30.10 in 10.0 mi NNW 12.7 mph 18.4 mph N/A   Clear